Weather History for Custer, SD

Change the Weather History Date:

Sunday, May 11, 2014

  Actual Average Record
Temperature  
Mean Temperature 38 °F 47 °F  
Max Temperature 44 °F 59 °F 81 °F (1961)
Min Temperature 32 °F 35 °F 13 °F (1953)
Degree Days  
Heating Degree Days 27 18  
Month to date heating degree days 229 215  
Since 1 July heating degree days 7910 7865  
Cooling Degree Days 0 0  
Month to date cooling degree days 0 0  
Year to date cooling degree days 0 0  
Moisture  
Dew Point 29 °F    
Average Humidity 73    
Maximum Humidity 85    
Minimum Humidity 60    
Precipitation  
Precipitation 0.05 in 0.10 in 1.67 in (1930)
Month to date precipitation 1.05 1.03  
Year to date precipitation 5.65 5.02  
Sea Level Pressure  
Sea Level Pressure 29.95 in    
Wind  
Wind Speed 12 mph (North)    
Max Wind Speed 24 mph    
Max Gust Speed 34 mph    
Visibility 7 miles    
Events Fog , Snow    
T = Trace of Precipitation, MM = Missing Value Source: NWS Daily Summary

Daily Weather History Graph

Daily Weather History Graph

Search for Another Location

Airport:

Trip Planner

Search our weather history database for the weather conditions in past years. The results will help you decide how hot, cold, wet, or windy it might be!

Date:

Astronomy

May. 11, 2014 Rise Set
Actual Time 5:33 AM MDT 8:08 PM MDT
Civil Twilight 5:00 AM MDT 8:41 PM MDT
Nautical Twilight 4:20 AM MDT 9:22 PM MDT
Astronomical Twilight 3:33 AM MDT 10:09 PM MDT
Moon 5:01 PM MDT (5/11) 3:46 AM MDT (5/11)
Length of Visible Light 15h 40m
Length of Day
14h 35m
Waxing Gibbous, 89% of the Moon is Illuminated
May 11
Waxing Gibbous
May 14
Full
May 21
Last Quarter
May 28
New
Jun 5
First Quarter

Hourly Weather History & Observations

Time (MDT) Temp. Windchill Dew Point Humidity Pressure Visibility Wind Dir Wind Speed Gust Speed Precip Events Conditions
12:06 AM 44.1 °F - 35.1 °F 71% 29.89 in 10.0 mi Calm Calm - N/A   Overcast
12:16 AM 44.1 °F 42.5 °F 34.0 °F 68% 29.89 in 10.0 mi North 3.5 mph - N/A   Overcast
12:53 AM 44.1 °F - 34.0 °F 68% 29.81 in 10.0 mi Calm Calm - N/A   Overcast
1:38 AM 43.0 °F 41.3 °F 33.1 °F 68% 29.88 in 10.0 mi WNW 3.5 mph - N/A   Overcast
1:51 AM 42.8 °F 41.1 °F 30.2 °F 61% 29.88 in 10.0 mi WNW 3.5 mph - N/A   Overcast
1:53 AM 43.0 °F 41.3 °F 30.0 °F 60% 29.81 in 10.0 mi WNW 3.5 mph - N/A   Overcast
2:53 AM 41.0 °F 39.0 °F 28.9 °F 62% 29.81 in 10.0 mi West 3.5 mph - N/A   Overcast
3:48 AM 39.2 °F - 32.0 °F 75% 29.89 in 10.0 mi Calm Calm - 0.00 in   Overcast
3:53 AM 39.0 °F 36.8 °F 32.0 °F 76% 29.83 in 10.0 mi ENE 3.5 mph - 0.00 in   Overcast
4:29 AM 37.0 °F 31.0 °F 28.0 °F 70% 29.89 in 10.0 mi NE 8.1 mph - N/A   Overcast
4:37 AM 37.0 °F 32.4 °F 28.0 °F 70% 29.89 in 10.0 mi NE 5.8 mph - N/A   Overcast
4:53 AM 36.0 °F 30.3 °F 28.0 °F 73% 29.84 in 10.0 mi NE 6.9 mph - N/A   Overcast
5:22 AM 35.1 °F 30.1 °F 27.0 °F 72% 29.91 in 10.0 mi North 5.8 mph - N/A   Overcast
5:53 AM 34.0 °F 27.2 °F 27.0 °F 75% 29.87 in 10.0 mi North 8.1 mph - N/A   Overcast
6:38 AM 34.0 °F 26.6 °F 26.1 °F 73% 29.92 in 10.0 mi North 9.2 mph - N/A   Overcast
6:53 AM 34.0 °F 25.0 °F 26.1 °F 73% 29.88 in 10.0 mi NNW 12.7 mph 21.9 mph N/A   Overcast
7:53 AM 34.0 °F 26.6 °F 26.1 °F 73% 29.94 in 10.0 mi North 9.2 mph - N/A   Overcast
8:53 AM 36.0 °F 29.0 °F 27.0 °F 70% 29.95 in 10.0 mi NNE 9.2 mph 16.1 mph N/A   Overcast
9:53 AM 36.0 °F 28.0 °F 28.0 °F 73% 29.94 in 10.0 mi North 11.5 mph 23.0 mph N/A   Overcast
10:26 AM 37.9 °F 29.6 °F 28.9 °F 70% 29.96 in 10.0 mi North 13.8 mph 28.8 mph N/A   Overcast
10:53 AM 36.0 °F 26.7 °F 28.0 °F 73% 29.96 in 10.0 mi North 15.0 mph 24.2 mph N/A   Overcast
11:02 AM 37.0 °F 27.4 °F 28.0 °F 70% 29.97 in 10.0 mi North 17.3 mph 25.3 mph N/A   Overcast
11:53 AM 36.0 °F 27.5 °F 28.9 °F 76% 29.96 in 10.0 mi North 12.7 mph 28.8 mph N/A   Overcast
12:53 PM 36.0 °F 27.1 °F 28.9 °F 76% 29.94 in 10.0 mi NNE 13.8 mph 27.6 mph N/A   Overcast
1:53 PM 36.0 °F 26.7 °F 28.9 °F 76% 29.94 in 10.0 mi North 15.0 mph 29.9 mph 0.00 in   Overcast
2:31 PM 35.1 °F 24.8 °F 28.0 °F 76% 29.95 in 5.0 mi North 17.3 mph 26.5 mph 0.00 in Snow Light Snow
2:53 PM 34.0 °F 22.4 °F 28.0 °F 79% 29.96 in 3.0 mi North 20.7 mph 29.9 mph 0.00 in Snow Light Snow
3:01 PM 35.1 °F 26.9 °F 28.0 °F 76% 29.96 in 2.5 mi NNE 11.5 mph 29.9 mph 0.00 in Snow Light Snow
3:15 PM 34.0 °F 24.2 °F 28.0 °F 79% 29.96 in 3.0 mi North 15.0 mph 26.5 mph 0.00 in Snow Light Snow
3:23 PM 34.0 °F 23.8 °F 27.0 °F 75% 29.96 in 4.0 mi North 16.1 mph 31.1 mph 0.00 in Snow Light Snow
3:53 PM 34.0 °F 23.8 °F 28.0 °F 79% 29.98 in 2.0 mi North 16.1 mph 31.1 mph 0.00 in Snow Light Snow
4:01 PM 33.8 °F 23.5 °F 28.4 °F 81% 29.96 in 1.5 mi NNE 16.1 mph 31.1 mph N/A Snow Light Snow
4:44 PM 33.1 °F 22.2 °F 28.0 °F 82% 29.99 in 0.8 mi NNE 17.3 mph 28.8 mph 0.00 in Snow Light Snow
4:53 PM 33.1 °F 22.6 °F 28.9 °F 85% 30.03 in 0.8 mi NNE 16.1 mph 28.8 mph 0.00 in Snow Light Snow
5:17 PM 32.0 °F 21.2 °F 28.9 °F 88% 30.00 in 0.8 mi NNE 16.1 mph 21.9 mph 0.01 in Snow Light Snow
5:53 PM 32.0 °F 23.0 °F 28.9 °F 88% 30.06 in 0.5 mi NNE 11.5 mph 25.3 mph 0.02 in Fog , Snow Snow
6:31 PM 33.1 °F 22.2 °F 28.9 °F 85% 30.01 in 0.8 mi NNE 17.3 mph 26.5 mph 0.02 in Snow Light Snow
6:43 PM 33.1 °F 23.4 °F 28.9 °F 85% 30.01 in 1.0 mi NNE 13.8 mph 25.3 mph 0.02 in Snow Light Snow
6:53 PM 33.1 °F 23.0 °F 28.9 °F 85% 30.06 in 1.0 mi NNE 15.0 mph 26.5 mph 0.02 in Snow Light Snow
7:05 PM 33.1 °F 23.9 °F 28.9 °F 85% 30.03 in 1.2 mi NNE 12.7 mph 32.2 mph 0.00 in Snow Light Snow
7:25 PM 33.1 °F 23.0 °F 28.0 °F 82% 30.03 in 2.5 mi NNE 15.0 mph 29.9 mph 0.01 in Snow Light Snow
7:28 PM 32.0 °F 20.1 °F 28.0 °F 85% 30.03 in 3.0 mi NNE 19.6 mph 29.9 mph 0.01 in Snow Light Snow
7:39 PM 33.1 °F 21.5 °F 27.0 °F 78% 30.03 in 7.0 mi NNE 19.6 mph 28.8 mph 0.01 in   Overcast
7:53 PM 33.1 °F 22.2 °F 28.0 °F 82% 30.08 in 9.0 mi NNE 17.3 mph 29.9 mph 0.01 in   Overcast
8:53 PM 33.1 °F 22.2 °F 27.0 °F 78% 30.09 in 10.0 mi NNE 17.3 mph 26.5 mph 0.00 in   Overcast
10:53 PM 33.1 °F 22.6 °F 27.0 °F 78% 30.10 in 10.0 mi North 16.1 mph 31.1 mph N/A   Overcast
11:53 PM 33.1 °F 23.9 °F 25.0 °F 72% 30.14 in 10.0 mi NNE 12.7 mph 28.8 mph N/A   Overcast